Content
SEND FEEDBACK

Daily
Averages
Monthly
Summary
United States of America

PACIFIC JUNCTION, IOWA


Home > North America > United States > Iowa
Elevation: 954 feet     Latitude: 41 00N     Longitude: 095 46W

WEATHER
 
SELECT A DAY
Number of Records: 198,690;   Date Range: 11/2/06 - 10/21/14
 
SHARE

PRINT THIS DATA

[ ← Previous Day ]
WEATHER ALMANAC - JANUARY 31, 2013
[ Next Day → ]
[ °C ]   °F
Weather ElementAverageHighLow
Temperature8.1 °F17.1 °F (12:35 am)-1.3 °F (11:55 pm)
Dewpoint-1.2 °F10.9 °F (12:35 am)-8 °F (10:35 pm)
Humidity66.2 %77 % (12:35 am)56 % (4:35 pm)
Barometer30.19 in30.41 in (11:15 pm)29.93 in (12:35 am)
Wind Speed13.1 mph29.9 mph (10:35 am)
Wind Gust36.8 mph (10:35 am)
Weather ElementAverage
Visibility9.6 mi
Wind DirectionNW (309.6 °)

Weather ElementTotal
Precipitation---
Heating Degree Days57.1 (Base 65)
Averaged from 70 records on January 31, 2013
WEATHER CONDITIONS BREAKOUT
WIND DIRECTION BREAKOUT
WEATHER BY HOUR - JANUARY 31, 2013
[ °C ]   °F
Local TimeTemperatureDewpointHumidityBarometerVisibilityWind DirectionWind SpeedGust SpeedPrecipitationEventsConditions
12:35 AM17.1 °F10.9 °F77 %29.93 in10.0 miWNW (300°)8.1 mphOvercast
12:55 AM17.1 °F10.0 °F74 %29.93 in10.0 miNW (310°)10.4 mphOvercast
1:15 AM16.5 °F9.5 °F74 %29.93 in10.0 miNW (320°)10.4 mphOvercast
1:35 AM15.8 °F7.7 °F70 %29.93 in10.0 miNW (320°)10.4 mphOvercast
1:55 AM15.6 °F8.4 °F73 %29.94 in10.0 miNW (310°)9.2 mphOvercast
2:15 AM15.4 °F7.7 °F71 %29.94 in10.0 miNW (310°)12.7 mph17.3 mphOvercast
2:35 AM14.9 °F7.7 °F73 %29.96 in10.0 miNW (310°)10.4 mphOvercast
2:55 AM14.0 °F7.2 °F74 %29.95 in10.0 miNW (320°)10.4 mphOvercast
3:15 AM13.8 °F6.6 °F73 %29.96 in10.0 miNW (310°)13.8 mphOvercast
3:35 AM13.5 °F6.6 °F74 %29.95 in10.0 miNNW (330°)12.7 mph18.4 mphOvercast
3:55 AM12.0 °F5.2 °F74 %29.96 in10.0 miNNW (330°)12.7 mphMostly Cloudy
4:15 AM10.6 °F3.7 °F74 %29.97 in10.0 miNNW (330°)8.1 mphScattered Clouds
4:35 AM9.5 °F3.2 °F76 %29.99 in10.0 miNW (310°)9.2 mphClear
4:55 AM8.4 °F2.1 °F76 %29.99 in10.0 miWNW (300°)8.1 mphClear
5:15 AM8.6 °F1.2 °F72 %30.00 in10.0 miNW (310°)10.4 mphClear
5:35 AM8.1 °F1.4 °F74 %30.00 in10.0 miNW (310°)11.5 mphClear
5:55 AM8.1 °F1.4 °F74 %30.01 in10.0 miNW (310°)11.5 mphClear
6:15 AM8.1 °F0.9 °F72 %30.02 in10.0 miWNW (300°)10.4 mphScattered Clouds
6:35 AM7.7 °F0.3 °F72 %30.03 in10.0 miWNW (300°)10.4 mph16.1 mphScattered Clouds
6:55 AM7.5 °F-0.4 °F70 %30.03 in10.0 miNW (310°)10.4 mphClear
7:15 AM7.3 °F-0.4 °F71 %30.04 in10.0 miNW (310°)9.2 mphClear
7:35 AM7.5 °F-0.4 °F70 %30.06 in10.0 miNW (310°)10.4 mphClear
7:55 AM7.7 °F-0.6 °F69 %30.07 in10.0 miNW (310°)12.7 mph17.3 mphScattered Clouds
8:15 AM8.1 °F-1.3 °F66 %30.08 in10.0 miNW (310°)10.4 mphScattered Clouds
8:35 AM8.4 °F-0.8 °F66 %30.09 in10.0 miNW (310°)11.5 mphClear
8:55 AM9.0 °F-0.9 °F64 %30.10 in10.0 miNW (310°)19.6 mph23.0 mphClear
9:15 AM9.1 °F-1.7 °F62 %30.12 in10.0 miNW (310°)17.3 mph26.5 mphClear
9:35 AM9.1 °F-1.5 °F62 %30.14 in10.0 miNW (310°)17.3 mph25.3 mphClear
9:55 AM9.5 °F-1.1 °F62 %30.15 in10.0 miNW (310°)11.5 mph23.0 mphClear
10:15 AM9.5 °F-1.5 °F61 %30.17 in10.0 miNW (310°)17.3 mph28.8 mphClear
10:35 AM9.3 °F-1.3 °F62 %30.18 in7.0 miNW (320°)29.9 mph36.8 mphScattered Clouds
10:55 AM9.0 °F-1.5 °F63 %30.20 in3.0 miNW (310°)29.9 mph35.7 mphHaze
11:15 AM8.6 °F-1.3 °F64 %30.21 in3.0 miNW (310°)24.2 mph36.8 mphHaze
11:35 AM8.8 °F-0.8 °F65 %30.22 in4.0 miWNW (300°)23.0 mph31.1 mphHaze
11:55 AM8.6 °F-2.2 °F62 %30.23 in7.0 miNW (320°)23.0 mph29.9 mphOvercast
12:15 PM9.0 °F-1.5 °F63 %30.23 in7.0 miNW (310°)21.9 mph26.5 mphOvercast
12:35 PM9.5 °F0.0 °F65 %30.24 in10.0 miWNW (300°)19.6 mph24.2 mphMostly Cloudy
12:55 PM9.1 °F-0.9 °F64 %30.25 in10.0 miNW (310°)18.4 mph28.8 mphMostly Cloudy
1:15 PM9.3 °F-2.0 °F60 %30.25 in10.0 miNW (320°)19.6 mph29.9 mphMostly Cloudy
1:35 PM9.5 °F-1.5 °F61 %30.26 in10.0 miWNW (300°)18.4 mph27.6 mphMostly Cloudy
1:55 PM9.5 °F-1.8 °F60 %30.26 in10.0 miNW (320°)21.9 mph26.5 mphMostly Cloudy
2:15 PM9.7 °F-0.9 °F62 %30.26 in10.0 miWNW (300°)17.3 mph24.2 mphMostly Cloudy
2:35 PM9.9 °F-1.5 °F60 %30.27 in10.0 miWNW (300°)19.6 mph27.6 mphMostly Cloudy
2:55 PM9.5 °F-2.6 °F58 %30.27 in10.0 miNW (310°)17.3 mph28.8 mphScattered Clouds
3:15 PM9.9 °F-2.4 °F58 %30.28 in10.0 miWNW (300°)21.9 mph26.5 mphScattered Clouds
3:35 PM9.7 °F-2.4 °F58 %30.29 in10.0 miNW (320°)21.9 mph28.8 mphClear
3:55 PM10.0 °F-2.0 °F58 %30.30 in10.0 miNW (310°)15.0 mph23.0 mphClear
4:15 PM9.5 °F-2.4 °F59 %30.30 in10.0 miNW (310°)18.4 mph23.0 mphClear
4:35 PM9.5 °F-3.3 °F56 %30.31 in10.0 miNW (310°)19.6 mph24.2 mphClear
4:55 PM9.0 °F-4.0 °F56 %30.31 in10.0 miNW (310°)17.3 mph23.0 mphClear
5:15 PM8.2 °F-4.4 °F57 %30.32 in10.0 miNW (310°)15.0 mph23.0 mphClear
5:35 PM7.3 °F-5.4 °F56 %30.32 in10.0 miNW (310°)15.0 mph23.0 mphClear
6:15 PM5.9 °F-5.3 °F60 %30.33 in10.0 miNW (310°)12.7 mphClear
6:35 PM5.9 °F-5.8 °F59 %30.34 in10.0 miNW (310°)12.7 mph21.9 mphClear
6:55 PM5.4 °F-5.8 °F60 %30.35 in10.0 miNW (320°)10.4 mphClear
7:15 PM4.8 °F-5.8 °F62 %30.35 in10.0 miNW (320°)11.5 mphClear
7:35 PM4.5 °F-6.2 °F62 %30.36 in10.0 miNNW (330°)6.9 mphClear
7:55 PM3.9 °F-6.7 °F61 %30.36 in10.0 miNW (320°)8.1 mphClear
8:15 PM2.8 °F-6.9 °F64 %30.37 in10.0 miNW (320°)5.8 mphClear
8:35 PM1.9 °F-7.2 °F65 %30.37 in10.0 miNW (320°)3.5 mphClear
8:55 PM1.2 °F-7.8 °F66 %30.38 in10.0 miNW (310°)4.6 mphClear
9:15 PM1.0 °F-7.6 °F67 %30.38 in10.0 miNW (310°)5.8 mphClear
9:35 PM0.5 °F-7.8 °F68 %30.39 in10.0 miWest (280°)3.5 mphClear
9:55 PM0.5 °F-7.6 °F69 %30.40 in10.0 miWNW (300°)5.8 mphClear
10:15 PM0.5 °F-7.8 °F68 %30.40 in10.0 miNW (310°)5.8 mphClear
10:35 PM0.3 °F-8.0 °F68 %30.40 in10.0 miNW (320°)4.6 mphClear
10:55 PM-0.2 °F-8.0 °F70 %30.40 in10.0 miNW (310°)4.6 mphClear
11:15 PM-0.4 °F-7.8 °F71 %30.41 in10.0 miWest (270°)4.6 mphClear
11:35 PM-0.4 °F-7.8 °F71 %30.41 in10.0 miWest (270°)5.8 mphClear
11:55 PM-1.3 °F-7.8 °F74 %30.41 in10.0 miWest (280°)3.5 mphClear
Hourly data recorded from KPMV, located miles away from Pacific Junction, Iowa







STORIES FROM OUR PARTNERS